Location: Kailua
(21.4020°N, 157.7390°W)
Time: 05:12:56
(UTC-10:00)

Cosmos 2297 Rocket - Visible Passes

Search period start: 01 July 2016 00:00
Search period end: 11 July 2016 00:00
Orbit: 840 x 843 km, 71.0° (Epoch: 29 June)

Date Brightness Start Highest point End Pass type
(mag) Time Alt. Az. Time Alt. Az. Time Alt. Az.
01 Jul 2.5 21:56:58 63° NW 21:56:58 63° NW 22:02:09 10° N visible
02 Jul 2.3 21:40:23 56° SW 21:41:28 70° WNW 21:47:06 10° NNE visible
03 Jul 2.3 21:23:02 25° SSW 21:26:23 75° WNW 21:32:02 10° NNE visible
04 Jul 2.2 21:05:40 10° SSW 21:11:18 80° WNW 21:16:58 10° NNE visible
05 Jul 2.2 20:50:35 10° SSW 20:56:14 85° WNW 21:01:54 10° NNE visible
06 Jul 2.1 20:35:30 10° SSW 20:41:09 89° SE 20:46:49 10° NNE visible
07 Jul 2.1 20:20:26 10° SSW 20:26:05 84° ESE 20:31:45 10° NNE visible
08 Jul 2.1 20:05:22 10° SSW 20:11:00 79° ESE 20:16:40 10° NNE visible
09 Jul 2.1 19:50:19 10° S 19:55:56 74° ESE 20:01:34 10° NNE visible
10 Jul 2.2 19:35:16 10° S 19:40:52 69° ESE 19:46:29 10° NNE visible
